Home > Weather > Acworth > Past weeks

Flag for U.S.A. Weather for the Past 2 Weeks in Acworth, Georgia, U.S.A.

Now
30 °F

Overcast.


Feels Like: 22 °F
Forecast: 20 / 50 °F
Wind: 9 mph from Northwest

Location: Cobb County-McCollum Field Airport

Current Time: Feb 10, 2016 at 10:36:04 PM

Latest Report: Feb 10, 2016 at 9:47 PM


Visibility: 10 mi

Pressure: 30.16 "Hg

Humidity: 40%

Dew point: 9 °F

Location of AcworthLocation

Historic Weather in Acworth — Graph

°F

Acworth Temperature Yesterday

Maximum temperature yesterday: 34 °F (at 6:47 AM)
Minimum temperature yesterday: 27 °F (at 9:50 PM)
Average temperature yesterday: 31 °F

High & Low Weather Summary for the Past Weeks

 TemperatureHumidityPressure
High73 °F (Feb 2, 2:47 PM)100% (Feb 2, 8:47 AM)30.43 "Hg (Feb 2, 8:47 AM)
Low21 °F (Feb 10, 6:47 AM)25% (Feb 5, 4:50 PM)29.74 "Hg (Feb 8, 1:47 PM)
Average46 °F57%30.06 "Hg
* Reported Jan 27 6:47 AM — Feb 10 9:47 PM, Acworth, Weather by CustomWeather, © 2016

Note: Actual official high and low records may vary slightly from our data, if they occured in-between our weather recording intervals... More about our weather records

Advertising

Acworth Weather History for the Previous 24 Hours

 ConditionsComfort  
Time TempWeatherWind HumidityBarometerVisibility
9:47 PM
Wed, Feb 10
30 °FOvercast.9 mph40%30.16 "Hg10 mi
8:47 PM32 °FOvercast.9 mph34%30.15 "Hg10 mi
7:47 PM32 °FOvercast.10 mph34%30.14 "Hg10 mi
6:47 PM32 °FOvercast.14 mph34%30.13 "Hg10 mi
5:47 PM34 °FPartly sunny.14 mph32%30.13 "Hg10 mi
4:53 PM34 °FPartly sunny.16 mph35%30.12 "Hg10 mi
3:50 PM34 °FScattered clouds.21 mph35%30.10 "Hg10 mi
2:47 PM34 °FSunny.17 mph35%30.12 "Hg10 mi
1:47 PM32 °FScattered clouds.18 mph37%30.11 "Hg10 mi
12:47 PM30 °FScattered clouds.18 mph40%30.13 "Hg10 mi
11:47 AM27 °FPartly sunny.14 mph43%30.15 "Hg10 mi
10:50 AM25 °FPartly sunny.13 mph46%30.16 "Hg10 mi
9:47 AM25 °FPartly sunny.12 mph50%30.13 "Hg10 mi
8:47 AM23 °FPartly sunny.14 mph58%30.12 "Hg10 mi
7:47 AM21 °FPartly sunny.12 mph58%30.11 "Hg10 mi
6:47 AM21 °FPassing clouds.9 mph54%30.08 "Hg10 mi
10:50 PM
Tue, Feb 9
27 °FPassing clouds.7 mph59%30.01 "Hg10 mi
Weather by CustomWeather, © 2016

See weather overviewHow to use our weather pages